Location: Unspecified
(43.3830°N, 0.0000°E)
Time: 19:48:07
(UTC+00:00)

Transit 2A - Pass Details

Date: 24 June 2019
Orbit: 597 x 962 km, 66.7° (Epoch: 21 August)

Event Time Altitude Azimuth Distance (km) Brightness Sun altitude
Exits shadow 01:02:21 16° 255° (WSW) 2,258 8.1 -21.8°
Maximum altitude 01:06:42 35° 312° (NW) 1,485 7.6 -21.6°
Drops below altitude 10° 01:12:21 10° 18° (NNE) 2,635 9.9 -21.3°
Sets 01:15:05 0° 27° (NNE) 3,540 10.9 -21.1°
